owner,sensor,date,latitude,longitude,sea_surface_height_above_sea_level,qcFlag 
COMPS,ioos:station:USF.COMPS:ANC:1,2011-01-01T00:00:00Z,28.1930,-82.7890,0.333,1111122 
COMPS,ioos:station:USF.COMPS:ANC:1,2011-01-01T00:06:00Z,28.1930,-82.7890,0.338,1111122 
COMPS,ioos:station:USF.COMPS:ANC:1,2011-01-01T00:12:00Z,28.1930,-82.7890,0.351,1111122 
COMPS,ioos:station:USF.COMPS:ANC:1,2011-01-01T00:18:00Z,28.1930,-82.7890,0.361,1111122 
COMPS,ioos:station:USF.COMPS:ANC:1,2011-01-01T00:24:00Z,28.1930,-82.7890,0.374,1111122 
COMPS,ioos:station:USF.COMPS:ANC:1,2011-01-01T00:30:00Z,28.1930,-82.7890,0.374,1111122 
COMPS,ioos:station:USF.COMPS:ANC:1,2011-01-01T00:36:00Z,28.1930,-82.7890,0.378,1111122 
COMPS,ioos:station:USF.COMPS:ANC:1,2011-01-01T00:42:00Z,28.1930,-82.7890,0.387,1111122 
COMPS,ioos:station:USF.COMPS:ANC:1,2011-01-01T00:48:00Z,28.1930,-82.7890,0.39,1111122 
COMPS,ioos:station:USF.COMPS:ANC:1,2011-01-01T00:54:00Z,28.1930,-82.7890,0.399,1111122 
COMPS,ioos:station:USF.COMPS:ANC:1,2011-01-01T01:00:00Z,28.1930,-82.7890,0.407,1111122 
COMPS,ioos:station:USF.COMPS:ANC:1,2011-01-01T01:06:00Z,28.1930,-82.7890,0.408,1111122 
COMPS,ioos:station:USF.COMPS:ANC:1,2011-01-01T01:12:00Z,28.1930,-82.7890,0.405,1111122 
COMPS,ioos:station:USF.COMPS:ANC:1,2011-01-01T01:18:00Z,28.1930,-82.7890,0.402,1111122 
COMPS,ioos:station:USF.COMPS:ANC:1,2011-01-01T01:24:00Z,28.1930,-82.7890,0.4,1111122 
COMPS,ioos:station:USF.COMPS:ANC:1,2011-01-01T01:30:00Z,28.1930,-82.7890,0.41,1111122 
COMPS,ioos:station:USF.COMPS:ANC:1,2011-01-01T01:36:00Z,28.1930,-82.7890,0.409,1111122 
COMPS,ioos:station:USF.COMPS:ANC:1,2011-01-01T01:42:00Z,28.1930,-82.7890,0.4,1111122 
COMPS,ioos:station:USF.COMPS:ANC:1,2011-01-01T01:48:00Z,28.1930,-82.7890,0.404,1111122 
COMPS,ioos:station:USF.COMPS:ANC:1,2011-01-01T01:54:00Z,28.1930,-82.7890,0.405,1111122 
COMPS,ioos:station:USF.COMPS:ANC:1,2011-01-01T02:00:00Z,28.1930,-82.7890,0.401,1111122 
COMPS,ioos:station:USF.COMPS:ANC:1,2011-01-01T02:06:00Z,28.1930,-82.7890,0.402,1111122 
COMPS,ioos:station:USF.COMPS:ANC:1,2011-01-01T02:12:00Z,28.1930,-82.7890,0.393,1111122 
COMPS,ioos:station:USF.COMPS:ANC:1,2011-01-01T02:18:00Z,28.1930,-82.7890,0.381,1111122 
COMPS,ioos:station:USF.COMPS:ANC:1,2011-01-01T02:24:00Z,28.1930,-82.7890,0.386,1111122 
COMPS,ioos:station:USF.COMPS:ANC:1,2011-01-01T02:30:00Z,28.1930,-82.7890,0.386,1111122 
COMPS,ioos:station:USF.COMPS:ANC:1,2011-01-01T02:36:00Z,28.1930,-82.7890,0.375,1111122 
COMPS,ioos:station:USF.COMPS:ANC:1,2011-01-01T02:42:00Z,28.1930,-82.7890,0.361,1111122 
COMPS,ioos:station:USF.COMPS:ANC:1,2011-01-01T02:48:00Z,28.1930,-82.7890,0.345,1111122 
COMPS,ioos:station:USF.COMPS:ANC:1,2011-01-01T02:54:00Z,28.1930,-82.7890,0.336,1111122 
COMPS,ioos:station:USF.COMPS:ANC:1,2011-01-01T03:00:00Z,28.1930,-82.7890,0.338,1111122 
COMPS,ioos:station:USF.COMPS:ANC:1,2011-01-01T03:06:00Z,28.1930,-82.7890,0.337,1111122 
COMPS,ioos:station:USF.COMPS:ANC:1,2011-01-01T03:12:00Z,28.1930,-82.7890,0.318,1111122 
COMPS,ioos:station:USF.COMPS:ANC:1,2011-01-01T03:18:00Z,28.1930,-82.7890,0.31,1111122 
COMPS,ioos:station:USF.COMPS:ANC:1,2011-01-01T03:24:00Z,28.1930,-82.7890,0.312,1111122 
COMPS,ioos:station:USF.COMPS:ANC:1,2011-01-01T03:30:00Z,28.1930,-82.7890,0.289,1111122 
COMPS,ioos:station:USF.COMPS:ANC:1,2011-01-01T03:36:00Z,28.1930,-82.7890,0.269,1111122 
COMPS,ioos:station:USF.COMPS:ANC:1,2011-01-01T03:42:00Z,28.1930,-82.7890,0.258,1111122 
COMPS,ioos:station:USF.COMPS:ANC:1,2011-01-01T03:48:00Z,28.1930,-82.7890,0.24,1111122 
COMPS,ioos:station:USF.COMPS:ANC:1,2011-01-01T03:54:00Z,28.1930,-82.7890,0.224,1111122 
COMPS,ioos:station:USF.COMPS:ANC:1,2011-01-01T04:00:00Z,28.1930,-82.7890,0.201,1111122 
COMPS,ioos:station:USF.COMPS:ANC:1,2011-01-01T04:06:00Z,28.1930,-82.7890,0.187,1111122 
COMPS,ioos:station:USF.COMPS:ANC:1,2011-01-01T04:12:00Z,28.1930,-82.7890,0.183,1111122 
COMPS,ioos:station:USF.COMPS:ANC:1,2011-01-01T04:18:00Z,28.1930,-82.7890,0.165,1111122 
COMPS,ioos:station:USF.COMPS:ANC:1,2011-01-01T04:24:00Z,28.1930,-82.7890,0.142,1111122 
COMPS,ioos:station:USF.COMPS:ANC:1,2011-01-01T04:30:00Z,28.1930,-82.7890,0.132,1111122 
COMPS,ioos:station:USF.COMPS:ANC:1,2011-01-01T04:36:00Z,28.1930,-82.7890,0.118,1111122 
COMPS,ioos:station:USF.COMPS:ANC:1,2011-01-01T04:42:00Z,28.1930,-82.7890,0.102,1111122 
COMPS,ioos:station:USF.COMPS:ANC:1,2011-01-01T04:48:00Z,28.1930,-82.7890,0.085,1111122 
COMPS,ioos:station:USF.COMPS:ANC:1,2011-01-01T04:54:00Z,28.1930,-82.7890,0.071,1111122 
COMPS,ioos:station:USF.COMPS:ANC:1,2011-01-01T05:00:00Z,28.1930,-82.7890,0.056,1111122 
COMPS,ioos:station:USF.COMPS:ANC:1,2011-01-01T05:06:00Z,28.1930,-82.7890,0.039,1111122 
COMPS,ioos:station:USF.COMPS:ANC:1,2011-01-01T05:12:00Z,28.1930,-82.7890,0.014,1111122 
COMPS,ioos:station:USF.COMPS:ANC:1,2011-01-01T05:18:00Z,28.1930,-82.7890,-0.011,1111122 
COMPS,ioos:station:USF.COMPS:ANC:1,2011-01-01T05:24:00Z,28.1930,-82.7890,-0.028,1111122 
COMPS,ioos:station:USF.COMPS:ANC:1,2011-01-01T05:30:00Z,28.1930,-82.7890,-0.045,1111122 
COMPS,ioos:station:USF.COMPS:ANC:1,2011-01-01T05:36:00Z,28.1930,-82.7890,-0.067,1111122 
COMPS,ioos:station:USF.COMPS:ANC:1,2011-01-01T05:42:00Z,28.1930,-82.7890,-0.093,1111122 
COMPS,ioos:station:USF.COMPS:ANC:1,2011-01-01T05:48:00Z,28.1930,-82.7890,-0.119,1111122 
COMPS,ioos:station:USF.COMPS:ANC:1,2011-01-01T05:54:00Z,28.1930,-82.7890,-0.141,1111122 
COMPS,ioos:station:USF.COMPS:ANC:1,2011-01-01T06:00:00Z,28.1930,-82.7890,-0.164,1111122 
COMPS,ioos:station:USF.COMPS:ANC:1,2011-01-01T06:06:00Z,28.1930,-82.7890,-0.187,1111122 
COMPS,ioos:station:USF.COMPS:ANC:1,2011-01-01T06:12:00Z,28.1930,-82.7890,-0.205,1111122 
COMPS,ioos:station:USF.COMPS:ANC:1,2011-01-01T06:18:00Z,28.1930,-82.7890,-0.225,1111122 
COMPS,ioos:station:USF.COMPS:ANC:1,2011-01-01T06:24:00Z,28.1930,-82.7890,-0.247,1111122 
COMPS,ioos:station:USF.COMPS:ANC:1,2011-01-01T06:30:00Z,28.1930,-82.7890,-0.276,1111122 
COMPS,ioos:station:USF.COMPS:ANC:1,2011-01-01T06:36:00Z,28.1930,-82.7890,-0.305,1111122 
COMPS,ioos:station:USF.COMPS:ANC:1,2011-01-01T06:42:00Z,28.1930,-82.7890,-0.327,1111122 
COMPS,ioos:station:USF.COMPS:ANC:1,2011-01-01T06:48:00Z,28.1930,-82.7890,-0.351,1111122 
COMPS,ioos:station:USF.COMPS:ANC:1,2011-01-01T06:54:00Z,28.1930,-82.7890,-0.378,1111122 
COMPS,ioos:station:USF.COMPS:ANC:1,2011-01-01T07:00:00Z,28.1930,-82.7890,-0.4,1111122 
COMPS,ioos:station:USF.COMPS:ANC:1,2011-01-01T07:06:00Z,28.1930,-82.7890,-0.42,1111122 
COMPS,ioos:station:USF.COMPS:ANC:1,2011-01-01T07:12:00Z,28.1930,-82.7890,-0.441,1111122 
COMPS,ioos:station:USF.COMPS:ANC:1,2011-01-01T07:18:00Z,28.1930,-82.7890,-0.463,1111122 
COMPS,ioos:station:USF.COMPS:ANC:1,2011-01-01T07:24:00Z,28.1930,-82.7890,-0.484,1111122 
COMPS,ioos:station:USF.COMPS:ANC:1,2011-01-01T07:30:00Z,28.1930,-82.7890,-0.501,1111122 
COMPS,ioos:station:USF.COMPS:ANC:1,2011-01-01T07:36:00Z,28.1930,-82.7890,-0.52,1111122 
COMPS,ioos:station:USF.COMPS:ANC:1,2011-01-01T07:42:00Z,28.1930,-82.7890,-0.539,1111122 
COMPS,ioos:station:USF.COMPS:ANC:1,2011-01-01T07:48:00Z,28.1930,-82.7890,-0.559,1111122 
COMPS,ioos:station:USF.COMPS:ANC:1,2011-01-01T07:54:00Z,28.1930,-82.7890,-0.578,1111122 
COMPS,ioos:station:USF.COMPS:ANC:1,2011-01-01T08:00:00Z,28.1930,-82.7890,-0.593,1111122 
COMPS,ioos:station:USF.COMPS:ANC:1,2011-01-01T08:06:00Z,28.1930,-82.7890,-0.605,1111122 
COMPS,ioos:station:USF.COMPS:ANC:1,2011-01-01T08:12:00Z,28.1930,-82.7890,-0.618,1111122 
COMPS,ioos:station:USF.COMPS:ANC:1,2011-01-01T08:18:00Z,28.1930,-82.7890,-0.634,1111122 
COMPS,ioos:station:USF.COMPS:ANC:1,2011-01-01T08:24:00Z,28.1930,-82.7890,-0.651,1111122 
COMPS,ioos:station:USF.COMPS:ANC:1,2011-01-01T08:30:00Z,28.1930,-82.7890,-0.666,1111122 
COMPS,ioos:station:USF.COMPS:ANC:1,2011-01-01T08:36:00Z,28.1930,-82.7890,-0.68,1111122 
COMPS,ioos:station:USF.COMPS:ANC:1,2011-01-01T08:42:00Z,28.1930,-82.7890,-0.679,1111122 
COMPS,ioos:station:USF.COMPS:ANC:1,2011-01-01T08:48:00Z,28.1930,-82.7890,-0.674,1111122 
COMPS,ioos:station:USF.COMPS:ANC:1,2011-01-01T08:54:00Z,28.1930,-82.7890,-0.674,1111122 
COMPS,ioos:station:USF.COMPS:ANC:1,2011-01-01T09:00:00Z,28.1930,-82.7890,-0.674,1111122 
COMPS,ioos:station:USF.COMPS:ANC:1,2011-01-01T09:06:00Z,28.1930,-82.7890,-0.674,1111122 
COMPS,ioos:station:USF.COMPS:ANC:1,2011-01-01T09:12:00Z,28.1930,-82.7890,-0.674,1111122 
COMPS,ioos:station:USF.COMPS:ANC:1,2011-01-01T09:18:00Z,28.1930,-82.7890,-0.674,1111122 
COMPS,ioos:station:USF.COMPS:ANC:1,2011-01-01T09:24:00Z,28.1930,-82.7890,-0.674,1111122 
COMPS,ioos:station:USF.COMPS:ANC:1,2011-01-01T09:30:00Z,28.1930,-82.7890,-0.674,1111122 
COMPS,ioos:station:USF.COMPS:ANC:1,2011-01-01T09:36:00Z,28.1930,-82.7890,-0.674,1111122 
COMPS,ioos:station:USF.COMPS:ANC:1,2011-01-01T09:42:00Z,28.1930,-82.7890,-0.674,1111122 
COMPS,ioos:station:USF.COMPS:ANC:1,2011-01-01T09:48:00Z,28.1930,-82.7890,-0.674,1111122 
COMPS,ioos:station:USF.COMPS:ANC:1,2011-01-01T09:54:00Z,28.1930,-82.7890,-0.674,1111122 
COMPS,ioos:station:USF.COMPS:ANC:1,2011-01-01T10:00:00Z,28.1930,-82.7890,-0.674,1111122 
COMPS,ioos:station:USF.COMPS:ANC:1,2011-01-01T10:06:00Z,28.1930,-82.7890,-0.674,1111122 
COMPS,ioos:station:USF.COMPS:ANC:1,2011-01-01T10:12:00Z,28.1930,-82.7890,-0.674,1111122 
COMPS,ioos:station:USF.COMPS:ANC:1,2011-01-01T10:18:00Z,28.1930,-82.7890,-0.674,1111122 
COMPS,ioos:station:USF.COMPS:ANC:1,2011-01-01T10:24:00Z,28.1930,-82.7890,-0.674,1111122 
COMPS,ioos:station:USF.COMPS:ANC:1,2011-01-01T10:30:00Z,28.1930,-82.7890,-0.676,1111122 
COMPS,ioos:station:USF.COMPS:ANC:1,2011-01-01T10:36:00Z,28.1930,-82.7890,-0.688,1111122 
COMPS,ioos:station:USF.COMPS:ANC:1,2011-01-01T10:42:00Z,28.1930,-82.7890,-0.679,1111122 
COMPS,ioos:station:USF.COMPS:ANC:1,2011-01-01T10:48:00Z,28.1930,-82.7890,-0.672,1111122 
COMPS,ioos:station:USF.COMPS:ANC:1,2011-01-01T10:54:00Z,28.1930,-82.7890,-0.659,1111122 
COMPS,ioos:station:USF.COMPS:ANC:1,2011-01-01T11:00:00Z,28.1930,-82.7890,-0.64,1111122 
COMPS,ioos:station:USF.COMPS:ANC:1,2011-01-01T11:06:00Z,28.1930,-82.7890,-0.619,1111122 
COMPS,ioos:station:USF.COMPS:ANC:1,2011-01-01T11:12:00Z,28.1930,-82.7890,-0.599,1111122 
COMPS,ioos:station:USF.COMPS:ANC:1,2011-01-01T11:18:00Z,28.1930,-82.7890,-0.58,1111122 
COMPS,ioos:station:USF.COMPS:ANC:1,2011-01-01T11:24:00Z,28.1930,-82.7890,-0.562,1111122 
COMPS,ioos:station:USF.COMPS:ANC:1,2011-01-01T11:30:00Z,28.1930,-82.7890,-0.543,1111122 
COMPS,ioos:station:USF.COMPS:ANC:1,2011-01-01T11:36:00Z,28.1930,-82.7890,-0.521,1111122 
COMPS,ioos:station:USF.COMPS:ANC:1,2011-01-01T11:42:00Z,28.1930,-82.7890,-0.499,1111122 
COMPS,ioos:station:USF.COMPS:ANC:1,2011-01-01T11:48:00Z,28.1930,-82.7890,-0.477,1111122 
COMPS,ioos:station:USF.COMPS:ANC:1,2011-01-01T11:54:00Z,28.1930,-82.7890,-0.451,1111122 
COMPS,ioos:station:USF.COMPS:ANC:1,2011-01-01T12:00:00Z,28.1930,-82.7890,-0.427,1111122 
COMPS,ioos:station:USF.COMPS:ANC:1,2011-01-01T12:06:00Z,28.1930,-82.7890,-0.402,1111122 
COMPS,ioos:station:USF.COMPS:ANC:1,2011-01-01T12:12:00Z,28.1930,-82.7890,-0.377,1111122 
COMPS,ioos:station:USF.COMPS:ANC:1,2011-01-01T12:18:00Z,28.1930,-82.7890,-0.363,1111122 
COMPS,ioos:station:USF.COMPS:ANC:1,2011-01-01T12:24:00Z,28.1930,-82.7890,-0.361,1111122 
COMPS,ioos:station:USF.COMPS:ANC:1,2011-01-01T12:30:00Z,28.1930,-82.7890,-0.352,1111122 
COMPS,ioos:station:USF.COMPS:ANC:1,2011-01-01T12:36:00Z,28.1930,-82.7890,-0.327,1111122 
COMPS,ioos:station:USF.COMPS:ANC:1,2011-01-01T12:42:00Z,28.1930,-82.7890,-0.298,1111122 
COMPS,ioos:station:USF.COMPS:ANC:1,2011-01-01T12:48:00Z,28.1930,-82.7890,-0.267,1111122 
COMPS,ioos:station:USF.COMPS:ANC:1,2011-01-01T12:54:00Z,28.1930,-82.7890,-0.249,1111122 
COMPS,ioos:station:USF.COMPS:ANC:1,2011-01-01T13:00:00Z,28.1930,-82.7890,-0.252,1111122 
COMPS,ioos:station:USF.COMPS:ANC:1,2011-01-01T13:06:00Z,28.1930,-82.7890,-0.244,1111122 
COMPS,ioos:station:USF.COMPS:ANC:1,2011-01-01T13:12:00Z,28.1930,-82.7890,-0.206,1111122 
COMPS,ioos:station:USF.COMPS:ANC:1,2011-01-01T13:18:00Z,28.1930,-82.7890,-0.184,1111122 
COMPS,ioos:station:USF.COMPS:ANC:1,2011-01-01T13:24:00Z,28.1930,-82.7890,-0.178,1111122 
COMPS,ioos:station:USF.COMPS:ANC:1,2011-01-01T13:30:00Z,28.1930,-82.7890,-0.154,1111122 
COMPS,ioos:station:USF.COMPS:ANC:1,2011-01-01T13:36:00Z,28.1930,-82.7890,-0.134,1111122 
COMPS,ioos:station:USF.COMPS:ANC:1,2011-01-01T13:42:00Z,28.1930,-82.7890,-0.126,1111122 
COMPS,ioos:station:USF.COMPS:ANC:1,2011-01-01T13:48:00Z,28.1930,-82.7890,-0.122,1111122 
COMPS,ioos:station:USF.COMPS:ANC:1,2011-01-01T13:54:00Z,28.1930,-82.7890,-0.108,1111122 
COMPS,ioos:station:USF.COMPS:ANC:1,2011-01-01T14:00:00Z,28.1930,-82.7890,-0.091,1111122 
COMPS,ioos:station:USF.COMPS:ANC:1,2011-01-01T14:06:00Z,28.1930,-82.7890,-0.071,1111122 
COMPS,ioos:station:USF.COMPS:ANC:1,2011-01-01T14:12:00Z,28.1930,-82.7890,-0.047,1111122 
COMPS,ioos:station:USF.COMPS:ANC:1,2011-01-01T14:18:00Z,28.1930,-82.7890,-0.03,1111122 
COMPS,ioos:station:USF.COMPS:ANC:1,2011-01-01T14:24:00Z,28.1930,-82.7890,-0.019,1111122 
COMPS,ioos:station:USF.COMPS:ANC:1,2011-01-01T14:30:00Z,28.1930,-82.7890,-0.012,1111122 
COMPS,ioos:station:USF.COMPS:ANC:1,2011-01-01T14:36:00Z,28.1930,-82.7890,0.012,1111122 
COMPS,ioos:station:USF.COMPS:ANC:1,2011-01-01T14:42:00Z,28.1930,-82.7890,0.036,1111122 
COMPS,ioos:station:USF.COMPS:ANC:1,2011-01-01T14:48:00Z,28.1930,-82.7890,0.033,1111122 
COMPS,ioos:station:USF.COMPS:ANC:1,2011-01-01T14:54:00Z,28.1930,-82.7890,0.043,1111122 
COMPS,ioos:station:USF.COMPS:ANC:1,2011-01-01T15:00:00Z,28.1930,-82.7890,0.068,1111122 
COMPS,ioos:station:USF.COMPS:ANC:1,2011-01-01T15:06:00Z,28.1930,-82.7890,0.075,1111122 
COMPS,ioos:station:USF.COMPS:ANC:1,2011-01-01T15:12:00Z,28.1930,-82.7890,0.076,1111122 
COMPS,ioos:station:USF.COMPS:ANC:1,2011-01-01T15:18:00Z,28.1930,-82.7890,0.077,1111122 
COMPS,ioos:station:USF.COMPS:ANC:1,2011-01-01T15:24:00Z,28.1930,-82.7890,0.072,1111122 
COMPS,ioos:station:USF.COMPS:ANC:1,2011-01-01T15:30:00Z,28.1930,-82.7890,0.074,1111122 
COMPS,ioos:station:USF.COMPS:ANC:1,2011-01-01T15:36:00Z,28.1930,-82.7890,0.092,1111122 
COMPS,ioos:station:USF.COMPS:ANC:1,2011-01-01T15:42:00Z,28.1930,-82.7890,0.091,1111122 
COMPS,ioos:station:USF.COMPS:ANC:1,2011-01-01T15:48:00Z,28.1930,-82.7890,0.086,1111122 
COMPS,ioos:station:USF.COMPS:ANC:1,2011-01-01T15:54:00Z,28.1930,-82.7890,0.099,1111122 
COMPS,ioos:station:USF.COMPS:ANC:1,2011-01-01T16:00:00Z,28.1930,-82.7890,0.119,1111122 
COMPS,ioos:station:USF.COMPS:ANC:1,2011-01-01T16:06:00Z,28.1930,-82.7890,0.124,1111122 
COMPS,ioos:station:USF.COMPS:ANC:1,2011-01-01T16:12:00Z,28.1930,-82.7890,0.127,1111122 
COMPS,ioos:station:USF.COMPS:ANC:1,2011-01-01T16:18:00Z,28.1930,-82.7890,0.138,1111122 
COMPS,ioos:station:USF.COMPS:ANC:1,2011-01-01T16:24:00Z,28.1930,-82.7890,0.171,1111122 
COMPS,ioos:station:USF.COMPS:ANC:1,2011-01-01T16:30:00Z,28.1930,-82.7890,0.188,1111122 
COMPS,ioos:station:USF.COMPS:ANC:1,2011-01-01T16:36:00Z,28.1930,-82.7890,0.166,1111122 
COMPS,ioos:station:USF.COMPS:ANC:1,2011-01-01T16:42:00Z,28.1930,-82.7890,0.123,1111122 
COMPS,ioos:station:USF.COMPS:ANC:1,2011-01-01T16:48:00Z,28.1930,-82.7890,0.111,1111122 
COMPS,ioos:station:USF.COMPS:ANC:1,2011-01-01T16:54:00Z,28.1930,-82.7890,0.119,1111122 
COMPS,ioos:station:USF.COMPS:ANC:1,2011-01-01T17:00:00Z,28.1930,-82.7890,0.103,1111122 
COMPS,ioos:station:USF.COMPS:ANC:1,2011-01-01T17:06:00Z,28.1930,-82.7890,0.094,1111122 
COMPS,ioos:station:USF.COMPS:ANC:1,2011-01-01T17:12:00Z,28.1930,-82.7890,0.107,1111122 
COMPS,ioos:station:USF.COMPS:ANC:1,2011-01-01T17:18:00Z,28.1930,-82.7890,0.114,1111122 
COMPS,ioos:station:USF.COMPS:ANC:1,2011-01-01T17:24:00Z,28.1930,-82.7890,0.111,1111122 
COMPS,ioos:station:USF.COMPS:ANC:1,2011-01-01T17:30:00Z,28.1930,-82.7890,0.086,1111122 
COMPS,ioos:station:USF.COMPS:ANC:1,2011-01-01T17:36:00Z,28.1930,-82.7890,0.053,1111122 
COMPS,ioos:station:USF.COMPS:ANC:1,2011-01-01T17:42:00Z,28.1930,-82.7890,0.069,1111122 
COMPS,ioos:station:USF.COMPS:ANC:1,2011-01-01T17:48:00Z,28.1930,-82.7890,0.074,1111122 
COMPS,ioos:station:USF.COMPS:ANC:1,2011-01-01T17:54:00Z,28.1930,-82.7890,0.03,1111122 
COMPS,ioos:station:USF.COMPS:ANC:1,2011-01-01T18:00:00Z,28.1930,-82.7890,0.026,1111122 
COMPS,ioos:station:USF.COMPS:ANC:1,2011-01-01T18:06:00Z,28.1930,-82.7890,0.039,1111122 
COMPS,ioos:station:USF.COMPS:ANC:1,2011-01-01T18:12:00Z,28.1930,-82.7890,0.033,1111122 
COMPS,ioos:station:USF.COMPS:ANC:1,2011-01-01T18:18:00Z,28.1930,-82.7890,0.018,1111122 
COMPS,ioos:station:USF.COMPS:ANC:1,2011-01-01T18:24:00Z,28.1930,-82.7890,0.017,1111122 
COMPS,ioos:station:USF.COMPS:ANC:1,2011-01-01T18:30:00Z,28.1930,-82.7890,0.002,1111122 
COMPS,ioos:station:USF.COMPS:ANC:1,2011-01-01T18:36:00Z,28.1930,-82.7890,-0.01,1111122 
COMPS,ioos:station:USF.COMPS:ANC:1,2011-01-01T18:42:00Z,28.1930,-82.7890,-0.019,1111122 
COMPS,ioos:station:USF.COMPS:ANC:1,2011-01-01T18:48:00Z,28.1930,-82.7890,-0.035,1111122 
COMPS,ioos:station:USF.COMPS:ANC:1,2011-01-01T18:54:00Z,28.1930,-82.7890,-0.038,1111122 
COMPS,ioos:station:USF.COMPS:ANC:1,2011-01-01T19:00:00Z,28.1930,-82.7890,-0.025,1111122 
COMPS,ioos:station:USF.COMPS:ANC:1,2011-01-01T19:06:00Z,28.1930,-82.7890,-0.021,1111122 
COMPS,ioos:station:USF.COMPS:ANC:1,2011-01-01T19:12:00Z,28.1930,-82.7890,-0.027,1111122 
COMPS,ioos:station:USF.COMPS:ANC:1,2011-01-01T19:18:00Z,28.1930,-82.7890,-0.03,1111122 
COMPS,ioos:station:USF.COMPS:ANC:1,2011-01-01T19:24:00Z,28.1930,-82.7890,-0.039,1111122 
COMPS,ioos:station:USF.COMPS:ANC:1,2011-01-01T19:30:00Z,28.1930,-82.7890,-0.064,1111122 
COMPS,ioos:station:USF.COMPS:ANC:1,2011-01-01T19:36:00Z,28.1930,-82.7890,-0.097,1111122 
COMPS,ioos:station:USF.COMPS:ANC:1,2011-01-01T19:42:00Z,28.1930,-82.7890,-0.111,1111122 
COMPS,ioos:station:USF.COMPS:ANC:1,2011-01-01T19:48:00Z,28.1930,-82.7890,-0.11,1111122 
COMPS,ioos:station:USF.COMPS:ANC:1,2011-01-01T19:54:00Z,28.1930,-82.7890,-0.106,1111122 
COMPS,ioos:station:USF.COMPS:ANC:1,2011-01-01T20:00:00Z,28.1930,-82.7890,-0.116,1111122 
COMPS,ioos:station:USF.COMPS:ANC:1,2011-01-01T20:06:00Z,28.1930,-82.7890,-0.131,1111122 
COMPS,ioos:station:USF.COMPS:ANC:1,2011-01-01T20:12:00Z,28.1930,-82.7890,-0.137,1111122 
COMPS,ioos:station:USF.COMPS:ANC:1,2011-01-01T20:18:00Z,28.1930,-82.7890,-0.137,1111122 
COMPS,ioos:station:USF.COMPS:ANC:1,2011-01-01T20:24:00Z,28.1930,-82.7890,-0.132,1111122 
COMPS,ioos:station:USF.COMPS:ANC:1,2011-01-01T20:30:00Z,28.1930,-82.7890,-0.126,1111122 
COMPS,ioos:station:USF.COMPS:ANC:1,2011-01-01T20:36:00Z,28.1930,-82.7890,-0.129,1111122 
COMPS,ioos:station:USF.COMPS:ANC:1,2011-01-01T20:42:00Z,28.1930,-82.7890,-0.135,1111122 
COMPS,ioos:station:USF.COMPS:ANC:1,2011-01-01T20:48:00Z,28.1930,-82.7890,-0.12,1111122 
COMPS,ioos:station:USF.COMPS:ANC:1,2011-01-01T20:54:00Z,28.1930,-82.7890,-0.102,1111122 
COMPS,ioos:station:USF.COMPS:ANC:1,2011-01-01T21:00:00Z,28.1930,-82.7890,-0.092,1111122 
COMPS,ioos:station:USF.COMPS:ANC:1,2011-01-01T21:06:00Z,28.1930,-82.7890,-0.077,1111122 
COMPS,ioos:station:USF.COMPS:ANC:1,2011-01-01T21:12:00Z,28.1930,-82.7890,-0.057,1111122 
COMPS,ioos:station:USF.COMPS:ANC:1,2011-01-01T21:18:00Z,28.1930,-82.7890,-0.028,1111122 
COMPS,ioos:station:USF.COMPS:ANC:1,2011-01-01T21:24:00Z,28.1930,-82.7890,-0.022,1111122 
COMPS,ioos:station:USF.COMPS:ANC:1,2011-01-01T21:30:00Z,28.1930,-82.7890,-0.038,1111122 
COMPS,ioos:station:USF.COMPS:ANC:1,2011-01-01T21:36:00Z,28.1930,-82.7890,-0.028,1111122 
COMPS,ioos:station:USF.COMPS:ANC:1,2011-01-01T21:42:00Z,28.1930,-82.7890,-0.013,1111122 
COMPS,ioos:station:USF.COMPS:ANC:1,2011-01-01T21:48:00Z,28.1930,-82.7890,-0.017,1111122 
COMPS,ioos:station:USF.COMPS:ANC:1,2011-01-01T21:54:00Z,28.1930,-82.7890,-0.006,1111122 
COMPS,ioos:station:USF.COMPS:ANC:1,2011-01-01T22:00:00Z,28.1930,-82.7890,0.017,1111122 
COMPS,ioos:station:USF.COMPS:ANC:1,2011-01-01T22:06:00Z,28.1930,-82.7890,0.032,1111122 
COMPS,ioos:station:USF.COMPS:ANC:1,2011-01-01T22:12:00Z,28.1930,-82.7890,0.049,1111122 
COMPS,ioos:station:USF.COMPS:ANC:1,2011-01-01T22:18:00Z,28.1930,-82.7890,0.057,1111122 
COMPS,ioos:station:USF.COMPS:ANC:1,2011-01-01T22:24:00Z,28.1930,-82.7890,0.07,1111122 
COMPS,ioos:station:USF.COMPS:ANC:1,2011-01-01T22:30:00Z,28.1930,-82.7890,0.086,1111122 
COMPS,ioos:station:USF.COMPS:ANC:1,2011-01-01T22:36:00Z,28.1930,-82.7890,0.089,1111122 
COMPS,ioos:station:USF.COMPS:ANC:1,2011-01-01T22:42:00Z,28.1930,-82.7890,0.087,1111122 
COMPS,ioos:station:USF.COMPS:ANC:1,2011-01-01T22:48:00Z,28.1930,-82.7890,0.083,1111122 
COMPS,ioos:station:USF.COMPS:ANC:1,2011-01-01T22:54:00Z,28.1930,-82.7890,0.096,1111122 
COMPS,ioos:station:USF.COMPS:ANC:1,2011-01-01T23:00:00Z,28.1930,-82.7890,0.126,1111122 
COMPS,ioos:station:USF.COMPS:ANC:1,2011-01-01T23:06:00Z,28.1930,-82.7890,0.138,1111122 
COMPS,ioos:station:USF.COMPS:ANC:1,2011-01-01T23:12:00Z,28.1930,-82.7890,0.136,1111122 
COMPS,ioos:station:USF.COMPS:ANC:1,2011-01-01T23:18:00Z,28.1930,-82.7890,0.134,1111122 
COMPS,ioos:station:USF.COMPS:ANC:1,2011-01-01T23:24:00Z,28.1930,-82.7890,0.154,1111122 
COMPS,ioos:station:USF.COMPS:ANC:1,2011-01-01T23:30:00Z,28.1930,-82.7890,0.19,1111122 
COMPS,ioos:station:USF.COMPS:ANC:1,2011-01-01T23:36:00Z,28.1930,-82.7890,0.2,1111122 
COMPS,ioos:station:USF.COMPS:ANC:1,2011-01-01T23:42:00Z,28.1930,-82.7890,0.221,1111122 
COMPS,ioos:station:USF.COMPS:ANC:1,2011-01-01T23:48:00Z,28.1930,-82.7890,0.268,1111122 
COMPS,ioos:station:USF.COMPS:ANC:1,2011-01-01T23:54:00Z,28.1930,-82.7890,0.312,1111122 
COMPS,ioos:station:USF.COMPS:ANC:1,2011-01-02T00:00:00Z,28.1930,-82.7890,0.312,1111122 
COMPS,ioos:station:USF.COMPS:ANC:1,2011-01-02T00:06:00Z,28.1930,-82.7890,0.278,1111122 
COMPS,ioos:station:USF.COMPS:ANC:1,2011-01-02T00:12:00Z,28.1930,-82.7890,0.313,1111122 
COMPS,ioos:station:USF.COMPS:ANC:1,2011-01-02T00:18:00Z,28.1930,-82.7890,0.339,1111122 
COMPS,ioos:station:USF.COMPS:ANC:1,2011-01-02T00:24:00Z,28.1930,-82.7890,0.328,1111122 
COMPS,ioos:station:USF.COMPS:ANC:1,2011-01-02T00:30:00Z,28.1930,-82.7890,0.34,1111122 
COMPS,ioos:station:USF.COMPS:ANC:1,2011-01-02T00:36:00Z,28.1930,-82.7890,0.358,1111122 
COMPS,ioos:station:USF.COMPS:ANC:1,2011-01-02T00:42:00Z,28.1930,-82.7890,0.369,1111122 
COMPS,ioos:station:USF.COMPS:ANC:1,2011-01-02T00:48:00Z,28.1930,-82.7890,0.377,1111122 
COMPS,ioos:station:USF.COMPS:ANC:1,2011-01-02T00:54:00Z,28.1930,-82.7890,0.368,1111122 
COMPS,ioos:station:USF.COMPS:ANC:1,2011-01-02T01:00:00Z,28.1930,-82.7890,0.379,1111122 
COMPS,ioos:station:USF.COMPS:ANC:1,2011-01-02T01:06:00Z,28.1930,-82.7890,0.389,1111122 
COMPS,ioos:station:USF.COMPS:ANC:1,2011-01-02T01:12:00Z,28.1930,-82.7890,0.378,1111122 
COMPS,ioos:station:USF.COMPS:ANC:1,2011-01-02T01:18:00Z,28.1930,-82.7890,0.367,1111122 
COMPS,ioos:station:USF.COMPS:ANC:1,2011-01-02T01:24:00Z,28.1930,-82.7890,0.402,1111122 
COMPS,ioos:station:USF.COMPS:ANC:1,2011-01-02T01:30:00Z,28.1930,-82.7890,0.436,1111122 
COMPS,ioos:station:USF.COMPS:ANC:1,2011-01-02T01:36:00Z,28.1930,-82.7890,0.414,1111122 
COMPS,ioos:station:USF.COMPS:ANC:1,2011-01-02T01:42:00Z,28.1930,-82.7890,0.402,1111122 
COMPS,ioos:station:USF.COMPS:ANC:1,2011-01-02T01:48:00Z,28.1930,-82.7890,0.408,1111122 
COMPS,ioos:station:USF.COMPS:ANC:1,2011-01-02T01:54:00Z,28.1930,-82.7890,0.404,1111122 
COMPS,ioos:station:USF.COMPS:ANC:1,2011-01-02T02:00:00Z,28.1930,-82.7890,0.416,1111122 
COMPS,ioos:station:USF.COMPS:ANC:1,2011-01-02T02:06:00Z,28.1930,-82.7890,0.424,1111122 
COMPS,ioos:station:USF.COMPS:ANC:1,2011-01-02T02:12:00Z,28.1930,-82.7890,0.414,1111122 
COMPS,ioos:station:USF.COMPS:ANC:1,2011-01-02T02:18:00Z,28.1930,-82.7890,0.406,1111122 
COMPS,ioos:station:USF.COMPS:ANC:1,2011-01-02T02:24:00Z,28.1930,-82.7890,0.392,1111122 
COMPS,ioos:station:USF.COMPS:ANC:1,2011-01-02T02:30:00Z,28.1930,-82.7890,0.391,1111122 
COMPS,ioos:station:USF.COMPS:ANC:1,2011-01-02T02:36:00Z,28.1930,-82.7890,0.401,1111122 
COMPS,ioos:station:USF.COMPS:ANC:1,2011-01-02T02:42:00Z,28.1930,-82.7890,0.408,1111122 
COMPS,ioos:station:USF.COMPS:ANC:1,2011-01-02T02:48:00Z,28.1930,-82.7890,0.384,1111122 
COMPS,ioos:station:USF.COMPS:ANC:1,2011-01-02T02:54:00Z,28.1930,-82.7890,0.378,1111122 